Regional Weather Roundup
Issued by NWS Charleston, SC

Current Version | Previous Version | Graphics & Text | Print | Product List | Glossary On
Versions: 1 2 3 4 5 6 7 8 9 10 11 12 13 14 15 16 17 18 19 20 21 22 23 24 25 26 27 28 29 30 31 32 33 34 35 36 37 38 39 40 41 42 43 44 45 46 47 48 49 50
000 ASUS42 KCHS 300425 RWRCHS REGIONAL WEATHER ROUNDUP NATIONAL WEATHER SERVICE CHARLESTON SC 1200 AM EDT WED JUL 30 2014 NOTE: "FAIR" INDICATES FEW OR NO CLOUDS BELOW 12,000 FEET WITH NO SIGNIFICANT WEATHER AND/OR OBSTRUCTIONS TO VISIBILITY. NOT ALL STATIONS ARE QUALITY CONTROLLED BY THE NATIONAL WEATHER SERVICE. USE DATA WITH CAUTION...ESPECIALLY DEWPOINT OBSERVATIONS. SCZ027-030-031-034>040-042>050-300500- ...SOUTH CAROLINA... CITY SKY/WX TMP DP RH WIND PRES REMARKS N CHARLESTON PTCLDY 77 68 73 CALM 29.96S WATERFRONT PRK N/A 81 N/A N/A CALM N/A FORT JOHNSON NOT AVBL MOUNT PLEASANT FAIR 73 72 94 CALM 29.96S FOG JOHNS ISLAND CLEAR 75 70 83 CALM 29.95F PINOPOLIS N/A 79 70 73 SE2 29.89R MONCKS CORNER N/A 72 70 94 CALM 29.95F SUMMERVILLE NOT AVBL BEAUFORT MCAS CLEAR 76 71 85 CALM 29.95S BEAUFORT ARPT FAIR 77 73 88 CALM 29.94S HILTON HEAD IS CLEAR 75 73 94 CALM 29.95F GEORGETOWN NOT AVBL WALTERBORO CLEAR 72 72 100 CALM 29.96S ORANGEBURG CLOUDY 75 63 66 NE7 29.96S BARNWELL FAIR 72 66 83 CALM 29.97R AIKEN MOCLDY 72 64 78 NE5 30.01S MANNING FAIR 70 70 100 CALM 29.97S KINGSTREE NOT AVBL COLUMBIA PTCLDY 77 58 51 CALM 29.97R SUMTER CLEAR 71 64 77 NE5 29.96S FLORENCE CLEAR 69 62 78 N6 29.97S MYRTLE BEACH CLEAR 73 68 83 CALM 29.96S N MYRTLE BEACH CLEAR 73 70 90 N3 29.97R $$ GAZ063-065-086>088-099>101-113>116-118-119-134-136>141-150-300500- ...GEORGIA... CITY SKY/WX TMP DP RH WIND PRES REMARKS SAVANNAH ARPT MOCLDY 78 69 73 CALM 29.95F HUNTER AAF PTCLDY 77 73 86 CALM 29.93F FORT STEWART PTCLDY 73 68 83 CALM 29.95S STATESBORO NOT AVBL SYLVANIA CLEAR 70 70 99 CALM 29.97S CLAXTON FAIR 73 73 100 CALM 29.96S THOMSON CLEAR 67 67 100 CALM 30.03S AUGUSTA-BUSH PTCLDY 75 62 64 NW3 29.96R AUGUSTA-DANIEL MOCLDY 79 60 52 NW5 29.98R SWAINSBORO MOCLDY 70 66 88 CALM 29.98S VIDALIA N/A 73 61 64 CALM 29.98R ALMA CLEAR 70 61 73 N3 29.96S WAYCROSS MOCLDY 75 66 74 CALM 29.96S JESUP FAIR 79 64 61 CALM 29.96S BRUNSWICK CLEAR 75 72 88 CALM 29.95S SAINT SIMONS MOCLDY 82 72 71 E6 29.94S $$ SCZ027-028-034-036>038-045-046-048>050-GAZ119-141-300500- ...LAKE AND SUPPLEMENTAL COASTAL OBSERVATIONS... STATION/POSITION TIME TEMP WIND PRES WAVE SWELL AIR SEA DIR/SP/G HT/PER HT/PER/DIR (UTC) (F) (DEG/KT/KT) (MB) (FT/S) (FT/S/D) UPR LAKE MARION NOT AVBL WINYAH BAY 0400 74 310/ 2 1014.0S LAKE MURRAY 0300 77 30/ 1/ 3 1014.2S ACE BASIN NERRS 0400 75 CALM 1014.0S FORT PULASKI 0400 80 120/ 1/ 2 1014.2F SAPELO ISLAND 0400 78 90/ 3 1014.0S $$ ANZ835-935-AMZ111-154-330-350-352-354-374-450-454-472-300500- ...C-MAN AND BUOY OBSERVATIONS... STATION/POSITION TIME TEMP WIND PRES WAVE SWELL AIR SEA DIR/SP/G HT/PER HT/PER/DIR (UTC) (F) (DEG/KT/KT) (MB) (FT/S) (FT/S/D) FOLLY BEACH CMAN 0400 82 90/ 3/ 4 1014.8S BUOY 41004 0400 82 84 60/ 4/ 4 1013.7R 2/ 5 2/ 5 BUOY 41008 0400 83 85 80/ 6/ 6 1013.8S 2/ 5 2/ 50/ 5 5E ST. MARYS GA 0400 85 N/A 2/ 8 FRYING PAN BUOY NOT AVBL BUOY 41025 0400 VRB 14/ 16 1014.7R 4/ 8 2/110/ 8 CAPE LOOKOUT NC 0400 77 60/ 13/ 14 1015.1F BUOY 41002 0256 81 81 220/ 14/ 17 1014.6R 6/ 7 5/200/ 8 BUOY 41010 0400 84 84 220/ 12/ 14 1014.6F 3/ 9 2/130/ 9 BUOY 41012 NOT AVBL ST AUGUSTINE FL 0400 80 260/ 6/ 7 1014.1S CAPERS NEARSHORE 0300 81 110/ 2/ 2 N/A FRIPP NEARSHORE NOT AVBL $$

USA.gov is the U.S. government's official web portal to all federal, state and local government web resources and services.